Weather History for Casper, WY

Change the Weather History Date:

Friday, January 27, 2012

  Actual Average Record
Temperature  
Mean Temperature 24 °F 25 °F  
Max Temperature 33 °F 35 °F 56 °F (2003)
Min Temperature 14 °F 14 °F -26 °F (1980)
Degree Days  
Heating Degree Days 41 40  
Month to date heating degree days 1009 1085  
Since 1 July heating degree days 3909 4214  
Cooling Degree Days 0 0  
Month to date cooling degree days 0 0  
Year to date cooling degree days 0 0  
Moisture  
Dew Point 13 °F    
Average Humidity 60    
Maximum Humidity 78    
Minimum Humidity 42    
Precipitation  
Precipitation T in 0.01 in 0.31 in (2000)
Month to date precipitation 0.67 0.44  
Year to date precipitation 0.67 0.44  
Snow  
Snow T in 0.30 in - ()
Month to date snowfall 9.1 7.9  
Since 1 July snowfall 35.8 38.4  
Snow Depth T in    
Sea Level Pressure  
Sea Level Pressure 30.18 in    
Wind  
Wind Speed 15 mph (NNW)    
Max Wind Speed 24 mph    
Max Gust Speed 35 mph    
Visibility 10 miles    
Events Snow    
T = Trace of Precipitation, MM = Missing Value Source: NWS Daily Summary

Daily Weather History Graph

Daily Weather History Graph

Search for Another Location

Airport:

Trip Planner

Search our weather history database for the weather conditions in past years. The results will help you decide how hot, cold, wet, or windy it might be!

Date:

Astronomy

Jan. 27, 2012 Rise Set
Actual Time 7:26 AM MST 5:11 PM MST
Civil Twilight 6:55 AM MST 5:42 PM MST
Nautical Twilight 6:21 AM MST 6:16 PM MST
Astronomical Twilight 5:47 AM MST 6:49 PM MST
Moon 9:13 AM MST (1/27) 10:14 PM MST (1/27)
Length of Visible Light 10h 46m
Length of Day
9h 45m
Waxing Crescent, 20% of the Moon is Illuminated
Jan 27
Waxing Crescent
Jan 30
First Quarter
Feb 7
Full
Feb 14
Last Quarter
Feb 21
New

Hourly Weather History & Observations

Time (MST) Temp. Windchill Dew Point Humidity Pressure Visibility Wind Dir Wind Speed Gust Speed Precip Events Conditions
12:53 AM 32.0 °F 20.8 °F 24.1 °F 73% 29.86 in 10.0 mi North 17.3 mph 21.9 mph N/A   Overcast
1:12 AM 30.2 °F 18.9 °F 24.8 °F 80% 29.86 in 10.0 mi North 16.1 mph 23.0 mph N/A   Overcast
1:20 AM 30.2 °F 18.9 °F 24.8 °F 80% 29.86 in 10.0 mi North 16.1 mph 23.0 mph N/A   Overcast
1:53 AM 28.9 °F 15.8 °F 23.0 °F 78% 29.90 in 10.0 mi NNE 20.7 mph 27.6 mph N/A   Overcast
2:53 AM 28.0 °F 14.3 °F 21.0 °F 75% 29.96 in 10.0 mi NNE 21.9 mph 27.6 mph N/A   Overcast
3:53 AM 26.1 °F 12.7 °F 19.9 °F 78% 29.99 in 9.0 mi NE 18.4 mph 26.5 mph 0.00 in   Overcast
4:53 AM 26.1 °F 16.8 °F 18.0 °F 71% 30.04 in 10.0 mi NE 9.2 mph - 0.00 in   Overcast
5:53 AM 26.6 °F 19.1 °F 15.8 °F 64% 30.04 in 10.0 mi NNE 6.9 mph - N/A   Overcast
6:38 AM 23.0 °F 12.4 °F 15.8 °F 74% 30.07 in 2.5 mi North 10.4 mph - 0.00 in Snow Light Snow
6:53 AM 21.9 °F 12.5 °F 16.0 °F 78% 30.14 in 6.0 mi NNE 8.1 mph - 0.00 in Snow Light Snow
7:09 AM 21.2 °F 14.9 °F 15.8 °F 80% 30.08 in 10.0 mi NNE 4.6 mph - 0.00 in   Overcast
7:53 AM 21.9 °F - 17.1 °F 82% 30.19 in 10.0 mi North - - 0.00 in   Overcast
8:53 AM 24.1 °F 17.0 °F 16.0 °F 71% 30.19 in 10.0 mi SW 5.8 mph - N/A   Overcast
9:53 AM 25.0 °F 13.6 °F 10.9 °F 55% 30.23 in 10.0 mi NNW 12.7 mph - N/A   Overcast
10:53 AM 28.0 °F 16.5 °F 10.0 °F 47% 30.25 in 10.0 mi NW 15.0 mph 20.7 mph N/A   Scattered Clouds
11:53 AM 28.0 °F 13.6 °F 8.1 °F 43% 30.26 in 10.0 mi NW 24.2 mph 34.5 mph N/A   Mostly Cloudy
12:53 PM 27.0 °F 12.5 °F 8.1 °F 45% 30.26 in 10.0 mi NW 23.0 mph 27.6 mph N/A   Overcast
1:53 PM 27.0 °F 13.2 °F 8.1 °F 45% 30.29 in 10.0 mi NW 20.7 mph 25.3 mph N/A   Mostly Cloudy
2:53 PM 26.1 °F 12.7 °F 6.1 °F 43% 30.32 in 10.0 mi NW 18.4 mph 25.3 mph N/A   Overcast
3:53 PM 27.0 °F 15.2 °F 6.1 °F 41% 30.33 in 10.0 mi NW 15.0 mph - N/A   Mostly Cloudy
4:53 PM 23.0 °F 12.4 °F 6.1 °F 48% 30.36 in 10.0 mi WNW 10.4 mph - N/A   Clear
5:53 PM 18.0 °F 6.1 °F 7.0 °F 62% 30.39 in 10.0 mi WSW 10.4 mph - N/A   Clear
6:53 PM 16.0 °F 3.6 °F 7.0 °F 68% 30.41 in 10.0 mi SSW 10.4 mph - N/A   Clear
7:53 PM 15.1 °F 1.1 °F 5.0 °F 64% 30.41 in 10.0 mi WSW 12.7 mph - N/A   Clear
8:53 PM 15.1 °F - 6.1 °F 68% 30.39 in 10.0 mi North - - N/A   Clear
9:53 PM 14.0 °F -1.4 °F 5.0 °F 67% 30.37 in 10.0 mi WSW 15.0 mph - N/A   Clear
10:53 PM 15.1 °F 1.1 °F 6.1 °F 68% 30.33 in 10.0 mi WSW 12.7 mph - N/A   Clear
11:53 PM 16.0 °F -0.4 °F 6.1 °F 65% 30.33 in 10.0 mi SW 18.4 mph - N/A   Clear